Location: East Arcadia
(34.1056°N, 118.0176°W)
Time: 01:52:58
(UTC+00:00)

ERS-1 - Pass Details

Date: 01 April 2023
Orbit: 742 x 787 km, 98.7° (Epoch: 08 June)

Event Time Altitude Azimuth Distance (km) Brightness Sun altitude
Rises 12:18:10 0° 10° (N) 3,190 8.1 -17.3°
Reaches altitude 10° 12:20:28 10° 8° (N) 2,260 7.3 -16.8°
Maximum altitude 12:25:24 71° 285° (WNW) 785 4.3 -15.9°
Drops below altitude 10° 12:30:19 10° 202° (SSW) 2,246 6.6 -14.9°
Enters shadow 12:30:58 - 201° (SSW) 2,511 6.8 -14.8°
